Regional Weather Roundup
Issued by NWS

Home | Current Version | Previous Version | Text Only | Print | Product List | Glossary On
Versions: 1 2 3 4 5 6 7 8 9 10 11 12 13 14 15 16 17 18 19 20 21 22 23 24 25 26 27 28 29 30 31 32 33 34 35 36 37 38 39 40 41 42 43 44 45 46 47 48 49 50
772
ASUS44 KLIX 271911
RWRLA
LOUISIANA WEATHER ROUNDUP
NATIONAL WEATHER SERVICE NEW ORLEANS LA
200 PM CDT WED JUL 27 2016

NOTE: "FAIR" INDICATES FEW OR NO CLOUDS BELOW 12,000 FEET WITH NO
      SIGNIFICANT WEATHER AND/OR OBSTRUCTIONS TO VISIBILITY.
      SKY/WX - SKY CONDITION AND SIGNIFICANT WEATHER.
      TMP - AIR TEMPERATURE.    DP   - DEWPOINT TEMPERATURE.
      RH  - RELATIVE HUMIDITY.  PRES - PRESSURE.
      HX  - HEAT INDEX.         WCI  - WIND CHILL INDEX.

*  THESE STATIONS ARE NOT NWS OR FAA STATIONS AND ARE NOT UNDER
   NWS QUALITY CONTROL.

LAZ040-048-061>063-065-066-069-272000-
SOUTHEAST LOUISIANA

CITY           SKY/WX    TMP DP  RH WIND       PRES   REMARKS
N.O. AUDUBON   NOT AVBL
N.O. INTL ARPT PTSUNNY   84  73  69 W13       30.06S
N.O. LAKEFRONT PTSUNNY   82  71  69 W6        30.06F
N.O. DOWNTOWN* FAIR      85  73  67 VRB5      30.06F
RESERVE*       FAIR      83  74  73 W14       30.06S
SLIDELL        MOSUNNY   80  73  79 VRB3      30.04F
BATON ROUGE    LGT RAIN  78  74  87 SW10      30.05F
BOOTHVILLE     MOSUNNY   87  77  72 SW10      30.06F HX  99
BELLE CHASSE   PTSUNNY   85  74  69 VRB5      30.05F
BOGALUSA*      CLOUDY    77  73  85 SW12G20   30.07R
GALLIANO*      CLOUDY    85  75  72 NW8       30.05F
NEW ROADS*     MOCLDY    79  72  80 SW8       30.05S
GONZALES*      CLOUDY    77  74  90 SW5G16    30.06S
HAMMOND*       CLOUDY    79  72  78 SW6       30.04F
HOUMA*         PTSUNNY   81  75  83 MISG      30.08F
PORT FOURCHON* MOCLDY    84  75  74 NW15      30.05F

$$

LAZ041-044-053-054-272000-
SOUTHWEST LOUISIANA

CITY           SKY/WX    TMP DP  RH WIND       PRES   REMARKS
LAKE CHARLES   CLOUDY    81  69  67 SW9       30.02F
LAFAYETTE      CLOUDY    80  74  81 SW12      30.04F
PATTERSON      LGT RAIN  77  76  96 SW6       30.10S
SALT POINT       N/A     77  73  87 VRB3      30.08S
NEW IBERIA     CLOUDY    81  74  79 S8        30.06F
CHENAULT AIRPK PTSUNNY   82  70  65 SW15      30.02F

$$

LAZ027-028-272000-
CENTRAL LOUISIANA

CITY           SKY/WX    TMP DP  RH WIND       PRES   REMARKS
FORT POLK      CLOUDY    79  75  89 SW13      30.01F
ALEXANDRIA INT CLOUDY    80  76  87 NW8       29.99R THUNDER
ALEXANDRIA     HVY RAIN  73  73 100 NW6       30.03R VSB 1/2

$$

LAZ001-002-272000-
NORTHWEST LOUISIANA

CITY           SKY/WX    TMP DP  RH WIND       PRES   REMARKS
SHREVEPORT     PTSUNNY   87  76  69 SW7       29.91F THUNDER HX  97
BARKSDALE AFB  TSTM      88  77  70 S14       29.91F HX 100
DTN SHREVEPORT LGT RAIN  89  76  65 S5        29.91F HX 100

$$

LAZ014-016-272000-
NORTHEAST LOUISIANA

CITY           SKY/WX    TMP DP  RH WIND       PRES   REMARKS
MONROE         CLOUDY    85  75  72 VRB5      29.95F
TALLULAH       LGT RAIN  80  75  84 SE3       29.96F

$$





USA.gov is the U.S. government's official web portal to all federal, state and local government web resources and services.